1488193201.2,9856,10.94,73268.5,4.51,-35.17,-35.65,0,*4A
1488193202.47,9857,10.94,73266.3,4.51,-35.35,-35.83,0,*43
1488193203.69,9858,10.94,73260.3,4.49,-34.41,-34.95,0,*41
1488193204.91,9859,10.94,73260.5,4.49,-33.15,-33.49,0,*40
1488193206.13,9860,10.94,73262.3,4.49,-34.35,-34.89,0,*44
1488193207.33,9861,10.94,73264.8,4.49,-34.89,-35.29,0,*49
1488193208.56,9862,10.94,73270.8,4.49,-34.31,-34.71,0,*45
1488193209.81,9863,10.94,73270.0,4.49,-33.77,-34.01,0,*46
1488193211.02,9864,10.94,73270.0,4.49,-33.95,-34.35,0,*4A
1488193212.24,9865,10.94,73266.5,4.49,-33.31,-33.83,0,*4F
1488193213.46,9866,10.94,73268.0,4.49,-33.67,-34.19,0,*4B
1488193214.69,9867,10.94,73264.8,4.49,-34.53,-35.13,0,*41
1488193215.91,9868,10.94,73268.5,4.49,-34.71,-35.23,0,*4D
1488193217.14,9869,10.94,73268.3,4.49,-33.27,-33.67,0,*4E
1488193218.36,9870,10.94,73266.3,4.47,-32.69,-32.91,0,*4B
1488193219.61,9871,10.94,73270.8,4.47,-32.91,-33.27,0,*41
1488193220.86,9872,10.94,73268.3,4.51,-33.73,-34.07,0,*4D
1488193222.13,9873,10.94,73268.0,4.51,-34.65,-35.07,0,*4D
1488193223.36,9874,10.94,73266.3,4.49,-35.07,-35.47,0,*42
1488193224.6,9875,10.94,73260.3,4.49,-35.23,-35.53,0,*40
1488193225.88,9876,10.94,73264.5,4.47,-35.07,-35.41,0,*48
1488193227.11,9877,10.94,73260.3,4.45,-35.01,-35.35,0,*4E
1488193228.32,9878,10.94,73262.8,4.45,-34.41,-34.83,0,*48
1488193229.55,9879,10.94,73260.0,4.45,-34.47,-34.95,0,*48
1488193230.77,9880,10.94,73266.0,4.45,-34.41,-34.83,0,*4F
1488193231.98,9881,10.94,73264.0,4.45,-33.83,-34.19,0,*44
1488193233.25,9882,10.94,73260.3,4.43,-32.75,-32.97,0,*49
1488193234.5,9883,10.94,73260.3,4.45,-32.79,-33.09,0,*44
1488193235.72,9884,10.94,73260.8,4.45,-32.79,-33.15,0,*4E
1488193236.97,9885,10.94,73258.8,4.47,-32.07,-32.39,0,*4B
1488193238.23,9886,10.94,73258.8,4.47,-32.07,-32.51,0,*46
1488193239.45,9887,10.94,73262.0,4.47,-31.79,-32.01,0,*48
1488193240.71,9888,10.94,73260.3,4.51,-31.61,-31.73,0,*4F
1488193241.98,9889,10.94,73262.0,4.51,-31.11,-31.57,0,*4F
1488193243.25,9890,10.94,73264.3,4.55,-31.23,-31.57,0,*42
1488193244.52,9891,10.94,73266.3,4.55,-31.39,-31.73,0,*4E
1488193245.74,9892,10.94,73266.5,4.57,-31.61,-32.01,0,*44
1488193246.96,9893,10.94,73264.8,4.61,-31.51,-31.79,0,*4F
1488193248.19,9894,10.94,73264.8,4.61,-32.07,-32.69,0,*4A
1488193249.41,9895,10.94,73264.0,4.61,-31.61,-32.01,0,*46
1488193250.66,9896,10.94,73266.8,4.63,-32.29,-32.69,0,*46
1488193251.9,9897,10.94,73268.3,4.61,-31.51,-31.85,0,*48
1488193253.15,9898,10.94,73270.0,4.63,-32.45,-33.03,0,*4F
1488193254.34,9899,10.94,73266.5,4.65,-32.91,-33.55,0,*42
1488193255.61,9900,10.94,73262.0,4.63,-32.79,-33.27,0,*46
1488193256.84,9901,10.94,73256.5,4.65,-32.79,-33.37,0,*40
1488193258.07,9902,10.94,73258.0,4.63,-32.69,-33.03,0,*43
1488193259.31,9903,10.94,73258.8,4.63,-32.63,-33.03,0,*48
1488193260.59,9904,10.94,73256.3,4.63,-32.85,-33.43,0,*43
1488193261.81,9905,10.94,73256.0,4.65,-32.19,-32.51,0,*43
1488193263.01,9906,10.94,73252.5,4.65,-31.79,-32.01,0,*40
1488193264.28,9907,10.94,73258.3,4.67,-31.73,-32.29,0,*43
1488193265.55,9908,10.94,73254.3,4.67,-31.57,-31.91,0,*4A
1488193266.8,9909,10.94,73256.0,4.67,-30.73,-31.17,0,*42
1488193268.02,9910,10.94,73260.3,4.69,-31.29,-31.51,0,*48
1488193269.27,9911,10.94,73260.5,4.73,-31.23,-31.39,0,*46
1488193270.5,9912,10.94,73258.0,4.73,-31.23,-31.45,0,*4E
1488193271.72,9913,10.94,73250.5,4.73,-31.05,-31.39,0,*40
1488193272.99,9914,10.94,73252.5,4.75,-31.23,-31.57,0,*4D
1488193274.26,9915,10.94,73252.8,4.75,-30.77,-31.23,0,*4F
1488193275.5,9916,10.94,73258.3,4.75,-30.55,-31.05,0,*48
1488193276.73,9917,10.94,73260.0,4.79,-31.17,-31.45,0,*46
1488193277.95,9918,10.94,73256.0,4.79,-31.17,-31.67,0,*49
1488193279.17,9919,10.94,73260.0,4.81,-31.45,-31.91,0,*41
1488193280.39,9920,10.94,73262.8,4.81,-31.51,-32.01,0,*44
1488193281.59,9921,10.94,73256.0,4.81,-31.45,-32.01,0,*40
1488193282.81,9922,10.94,73256.3,4.81,-32.07,-32.51,0,*43
1488193284.04,9923,10.94,73258.5,4.81,-32.07,-32.51,0,*42
1488193285.26,9924,10.94,73252.8,4.81,-32.19,-32.57,0,*4C
1488193286.48,9925,10.94,73254.5,4.85,-31.79,-32.29,0,*45
1488193287.72,9926,10.94,73252.0,4.85,-31.85,-32.29,0,*45
1488193288.94,9927,10.94,73250.8,4.87,-32.13,-32.51,0,*45
1488193290.19,9928,10.94,73244.3,4.87,-32.19,-32.57,0,*46
1488193291.43,9929,10.94,73248.3,4.87,-33.09,-33.55,0,*44
1488193292.68,9930,10.94,73250.0,4.87,-32.57,-33.09,0,*4F
1488193293.92,9931,10.94,73252.0,4.87,-32.35,-32.85,0,*4F
1488193295.12,9932,10.94,73254.0,4.85,-33.21,-33.55,0,*46
1488193296.37,9933,10.94,73254.8,4.87,-32.69,-33.09,0,*41
1488193297.61,9934,10.94,73256.0,4.85,-31.95,-32.29,0,*47
1488193298.87,9935,10.94,73256.3,4.87,-31.23,-31.45,0,*40
1488193300.09,9936,10.94,73254.8,4.87,-31.29,-31.79,0,*46
1488193301.36,9937,10.94,73256.5,4.91,-31.85,-32.19,0,*43
1488193302.6,9938,10.94,73254.8,4.89,-33.31,-33.77,0,*41
1488193303.82,9939,10.94,73256.8,4.89,-33.49,-33.95,0,*43
1488193305.03,9940,10.94,73260.3,4.89,-33.95,-34.31,0,*45
1488193306.27,9941,10.94,73258.3,4.89,-33.49,-33.73,0,*44
1488193307.49,9942,10.94,73262.8,4.85,-33.77,-34.13,0,*47
1488193308.74,9943,10.94,73266.3,4.87,-34.13,-34.53,0,*45
1488193309.94,9944,10.94,73262.3,4.85,-34.89,-35.29,0,*4F
1488193311.18,9945,10.94,73262.0,4.81,-35.35,-35.65,0,*44
1488193312.42,9946,10.94,73258.0,4.79,-35.53,-36.01,0,*41
1488193313.67,9947,10.94,73258.5,4.79,-36.01,-36.49,0,*48
1488193314.87,9948,10.94,73260.0,4.77,-36.19,-36.67,0,*4C
1488193316.09,9949,10.94,73262.0,4.75,-35.59,-36.01,0,*48
1488193317.29,9950,10.94,73262.3,4.73,-36.19,-36.73,0,*44
1488193318.48,9951,10.94,73260.5,4.73,-35.77,-36.19,0,*42
1488193319.68,9952,10.94,73262.8,4.69,-35.47,-35.89,0,*43
1488193320.88,9953,10.94,73264.8,4.69,-35.71,-36.19,0,*4D
1488193322.13,9954,10.94,73264.3,4.67,-35.01,-35.41,0,*4D
1488193323.34,9955,10.94,73262.3,4.65,-35.17,-35.65,0,*4F
1488193324.58,9956,10.94,73260.3,4.65,-34.83,-35.23,0,*42
1488193325.81,9957,10.94,73268.8,4.63,-34.13,-34.71,0,*4A
1488193327.06,9958,10.94,73272.3,4.63,-34.13,-34.65,0,*40
1488193328.26,9959,10.94,73266.0,4.65,-34.71,-35.17,0,*47
1488193329.45,9960,10.94,73256.8,4.61,-35.13,-35.71,0,*4C
1488193330.71,9961,10.94,73256.0,4.61,-34.95,-35.35,0,*42
1488193331.9,9962,10.94,73256.0,4.57,-35.13,-35.71,0,*4B
1488193333.11,9963,10.94,73250.5,4.57,-35.53,-36.07,0,*4C
1488193334.35,9964,10.94,73248.0,4.57,-35.83,-36.37,0,*45
1488193335.62,9965,10.94,73240.8,4.55,-35.41,-35.95,0,*43
1488193336.86,9966,10.94,73240.8,4.53,-36.13,-36.61,0,*4A
1488193338.09,9967,10.94,73248.3,4.51,-35.47,-36.01,0,*4D
1488193339.35,9968,10.94,73246.8,4.51,-35.95,-36.37,0,*48
1488193340.55,9969,10.94,73236.5,4.49,-36.01,-36.43,0,*4D
1488193341.75,9970,10.94,73240.0,4.49,-36.97,-37.75,0,*4E
1488193343.01,9971,10.94,73238.0,4.47,-36.25,-36.67,0,*4A
1488193344.23,9972,10.94,73242.5,4.45,-35.95,-36.31,0,*40
1488193345.46,9973,10.94,73254.5,4.45,-35.35,-35.89,0,*4B
1488193346.7,9974,10.94,73246.8,4.43,-36.13,-36.73,0,*4B
1488193347.92,9975,10.94,73238.3,4.41,-36.37,-37.15,0,*4F
1488193349.12,9976,10.94,73242.0,4.41,-36.31,-36.73,0,*4B
1488193350.33,9977,10.94,73240.8,4.35,-36.43,-37.03,0,*4A
1488193351.58,9978,10.94,73254.3,4.35,-36.43,-37.21,0,*45
1488193352.8,9979,10.94,73256.5,4.33,-36.49,-36.85,0,*47
1488193354.04,9980,10.94,73252.0,4.31,-35.13,-35.65,0,*42
1488193355.31,9981,10.94,73250.0,4.31,-35.53,-36.25,0,*40
1488193356.59,9982,10.94,73250.8,4.31,-34.95,-35.35,0,*4A
1488193357.82,9983,10.94,73254.0,4.31,-34.41,-35.01,0,*45
1488193359.1,9984,10.94,73252.0,4.31,-34.95,-35.35,0,*4C
1488193360.37,9985,10.94,73260.0,4.31,-35.65,-36.25,0,*41
1488193361.62,9986,10.94,73256.5,4.29,-35.23,-35.83,0,*46
1488193362.83,9987,10.94,73252.5,4.27,-34.71,-35.29,0,*4F
1488193364.04,9988,10.94,73258.3,4.29,-35.65,-36.31,0,*40
1488193365.24,9989,10.94,73260.0,4.29,-35.59,-36.19,0,*44
1488193366.43,9990,10.94,73258.3,4.27,-34.71,-35.13,0,*40
1488193367.63,9991,10.94,73262.8,4.27,-34.89,-35.29,0,*4F
1488193368.85,9992,10.94,73258.3,4.27,-35.07,-35.59,0,*4C
1488193370.07,9993,10.94,73256.8,4.29,-35.35,-35.71,0,*48
1488193371.26,9994,10.94,73258.8,4.27,-35.29,-35.77,0,*4A
1488193372.49,9995,10.94,73254.5,4.27,-34.95,-35.47,0,*4E
1488193373.68,9996,10.94,73258.8,4.27,-34.89,-35.29,0,*48
1488193374.9,9997,10.94,73250.0,4.27,-34.31,-34.47,0,*43
1488193376.1,9998,10.94,73250.8,4.29,-33.37,-33.55,0,*47
1488193377.29,9999,10.94,73248.3,4.29,-32.35,-32.69,0,*4B
1488193378.53,10000,10.94,73250.5,4.29,-32.79,-33.21,0,*7F
1488193379.76,10001,10.94,73250.8,4.29,-33.03,-33.43,0,*76
1488193380.99,10002,10.94,73254.8,4.33,-33.49,-33.83,0,*7C
1488193382.21,10003,10.94,73260.8,4.35,-32.51,-33.03,0,*7B
1488193383.44,10004,10.94,73254.8,4.35,-33.21,-33.67,0,*78
1488193384.68,10005,10.94,73240.0,4.35,-33.83,-34.35,0,*71
1488193385.93,10006,10.94,73238.5,4.35,-34.19,-34.89,0,*71
1488193387.17,10007,10.94,73250.5,4.35,-33.95,-34.35,0,*74
1488193388.39,10008,10.94,73248.5,4.39,-35.47,-36.07,0,*7D
1488193389.6,10009,10.94,73244.5,4.33,-35.89,-36.43,0,*74
1488193390.83,10010,10.94,73226.8,4.33,-34.83,-35.17,0,*75
1488193392.1,10011,10.94,73228.3,4.31,-34.01,-34.35,0,*7D
1488193393.36,10012,10.94,73238.8,4.31,-34.41,-34.95,0,*70
1488193394.56,10013,10.94,73246.8,4.33,-33.67,-34.07,0,*7B
1488193395.76,10014,10.94,73250.3,4.33,-33.67,-34.25,0,*7C
1488193396.99,10015,10.94,73248.8,4.33,-33.37,-34.01,0,*7E
1488193398.22,10016,10.94,73254.3,4.33,-34.19,-34.41,0,*72
1488193399.45,10017,10.94,73252.3,4.33,-33.27,-33.67,0,*7A
1488193400.69,10018,10.94,73252.5,4.35,-33.27,-33.67,0,*73
1488193401.96,10019,10.94,73254.8,4.35,-33.77,-34.31,0,*73
1488193403.24,10020,10.94,73254.8,4.35,-34.53,-35.07,0,*7C
1488193404.49,10021,10.94,73262.0,4.35,-33.77,-34.13,0,*78
1488193405.74,10022,10.94,73262.0,4.35,-33.49,-33.95,0,*7F
1488193406.99,10023,10.94,73266.0,4.35,-33.49,-34.13,0,*77
1488193408.23,10024,10.94,73270.0,4.39,-33.49,-33.95,0,*75
1488193409.51,10025,10.94,73268.0,4.39,-34.53,-35.07,0,*75
1488193410.76,10026,10.94,73264.3,4.39,-35.23,-35.59,0,*7B
1488193412.0,10027,10.94,73270.5,4.39,-35.89,-36.37,0,*71
1488193413.23,10028,10.94,73270.5,4.35,-35.29,-35.71,0,*79
1488193414.5,10029,10.94,73264.0,4.31,-35.65,-36.13,0,*73
1488193415.76,10030,10.94,73264.5,4.31,-35.29,-35.65,0,*71
1488193417.04,10031,10.94,73262.8,4.31,-35.65,-35.95,0,*77
1488193418.32,10032,10.94,73250.5,4.31,-35.65,-35.95,0,*74
1488193419.55,10033,10.94,73250.0,4.29,-35.83,-36.31,0,*79
1488193420.75,10034,10.94,73252.8,4.27,-35.77,-36.19,0,*71
1488193421.99,10035,10.94,73254.5,4.25,-35.65,-36.07,0,*7E
1488193423.21,10036,10.94,73252.8,4.25,-35.77,-36.07,0,*7E
1488193424.46,10037,10.94,73256.5,4.23,-35.83,-36.25,0,*72
1488193425.71,10038,10.94,73258.3,4.23,-35.53,-35.95,0,*78
1488193426.91,10039,10.94,73256.5,4.23,-35.47,-36.07,0,*74
1488193428.16,10040,10.94,73256.3,4.21,-35.29,-35.83,0,*7F
1488193429.39,10041,10.94,73262.8,4.19,-35.01,-35.53,0,*72
1488193430.62,10042,10.94,73260.0,4.21,-34.71,-35.17,0,*7C
1488193431.85,10043,10.94,73256.8,4.19,-35.41,-35.89,0,*73
1488193433.08,10044,10.94,73258.3,4.19,-35.59,-35.95,0,*70
1488193434.31,10045,10.94,73256.0,4.19,-35.01,-35.53,0,*76
1488193435.56,10046,10.94,73260.8,4.19,-35.07,-35.41,0,*70
1488193436.77,10047,10.94,73258.0,4.19,-35.77,-36.31,0,*72
1488193438.0,10048,10.94,73264.8,4.17,-35.77,-36.31,0,*73
1488193439.25,10049,10.94,73254.5,4.13,-35.77,-36.37,0,*70
1488193440.48,10050,10.94,73258.0,4.13,-35.13,-35.47,0,*7E
1488193441.76,10051,10.94,73258.3,4.13,-34.53,-34.95,0,*74
1488193443.04,10052,10.94,73258.8,4.13,-34.19,-34.53,0,*73
1488193444.32,10053,10.94,73258.8,4.13,-34.53,-35.07,0,*7C
1488193445.59,10054,10.94,73260.3,4.13,-34.35,-34.83,0,*76
1488193446.84,10055,10.94,73256.5,4.11,-33.43,-33.73,0,*7B
1488193448.07,10056,10.94,73262.0,4.13,-33.37,-33.55,0,*7D
1488193449.32,10057,10.94,73260.3,4.19,-31.91,-32.07,0,*7E
1488193450.55,10058,10.94,73258.5,4.19,-31.79,-31.95,0,*7F
1488193451.81,10059,10.94,73258.5,4.21,-32.39,-32.75,0,*7F
1488193453.05,10060,10.94,73262.3,4.21,-32.91,-33.31,0,*76
1488193454.33,10061,10.94,73262.5,4.21,-34.01,-34.35,0,*7B
1488193455.6,10062,10.94,73268.0,4.21,-33.09,-33.31,0,*74
1488193456.89,10063,10.94,73268.0,4.21,-32.79,-33.27,0,*74
1488193458.14,10064,10.94,73266.3,4.25,-32.51,-32.85,0,*74
1488193459.39,10065,10.94,73266.0,4.23,-33.49,-33.89,0,*76
1488193460.63,10066,10.94,73250.0,4.25,-33.27,-33.67,0,*7B
1488193461.85,10067,10.94,73240.8,4.27,-32.91,-33.27,0,*70
1488193463.11,10068,10.94,73240.5,4.29,-33.27,-33.77,0,*78
1488193464.33,10069,10.94,73242.0,4.27,-35.29,-35.83,0,*72
1488193465.57,10070,10.94,73250.5,4.27,-35.23,-35.65,0,*78
1488193466.8,10071,10.94,73246.5,4.27,-34.71,-35.23,0,*7D
1488193468.05,10072,10.94,73248.8,4.25,-34.35,-34.71,0,*7A
1488193469.3,10073,10.94,73254.8,4.25,-34.31,-34.77,0,*79
1488193470.5,10074,10.94,73248.5,4.23,-34.71,-35.17,0,*7B
1488193471.75,10075,10.94,73248.5,4.25,-35.29,-35.65,0,*75
1488193473.03,10076,10.94,73254.8,4.25,-34.95,-35.41,0,*76
1488193474.28,10077,10.94,73254.5,4.23,-34.53,-34.83,0,*74
1488193475.5,10078,10.94,73254.3,4.23,-34.35,-34.71,0,*76
1488193476.78,10079,10.94,73254.8,4.25,-34.31,-34.53,0,*75
1488193478.05,10080,10.94,73250.8,4.21,-33.31,-33.73,0,*75
1488193479.24,10081,10.94,73254.8,4.23,-33.83,-34.25,0,*7B
1488193480.49,10082,10.94,73258.3,4.23,-34.01,-34.35,0,*74
1488193481.76,10083,10.94,73260.8,4.25,-33.27,-33.61,0,*76
1488193483.03,10084,10.94,73260.8,4.25,-33.09,-33.49,0,*77
1488193484.28,10085,10.94,73264.5,4.23,-33.49,-34.01,0,*7F
1488193485.5,10086,10.94,73258.3,4.27,-34.35,-34.77,0,*75
1488193486.76,10087,10.94,73260.3,4.27,-34.31,-34.65,0,*73
1488193488.0,10088,10.94,73262.3,4.25,-33.83,-34.19,0,*7B
1488193489.22,10089,10.94,73256.8,4.27,-33.37,-33.77,0,*78
1488193490.43,10090,10.94,73262.8,4.27,-32.29,-32.57,0,*7D
1488193491.64,10091,10.94,73260.8,4.29,-32.69,-33.21,0,*76
1488193492.87,10092,10.94,73256.3,4.29,-32.97,-33.21,0,*74
1488193494.12,10093,10.94,73258.0,4.29,-33.31,-33.61,0,*7C
1488193495.37,10094,10.94,73260.0,4.29,-33.31,-33.73,0,*78
1488193496.63,10095,10.94,73262.0,4.31,-33.37,-33.73,0,*76
1488193497.91,10096,10.94,73258.8,4.31,-33.27,-33.49,0,*7D
1488193499.11,10097,10.94,73260.8,4.33,-34.07,-34.41,0,*74
1488193500.36,10098,10.94,73256.0,4.31,-34.41,-34.95,0,*72
1488193501.6,10099,10.94,73258.5,4.31,-35.29,-35.77,0,*71
1488193502.83,10100,10.94,73252.0,4.31,-34.41,-34.77,0,*7E
1488193504.07,10101,10.94,73252.0,4.29,-34.59,-35.07,0,*79
1488193505.32,10102,10.94,73252.0,4.29,-35.07,-35.23,0,*76
1488193506.53,10103,10.94,73254.3,4.27,-33.95,-34.31,0,*76
1488193507.76,10104,10.94,73252.3,4.27,-34.77,-35.23,0,*78
1488193508.98,10105,10.94,73252.3,4.27,-35.07,-35.59,0,*72
1488193510.21,10106,10.94,73250.3,4.27,-34.53,-35.13,0,*7F
1488193511.45,10107,10.94,73250.8,4.27,-34.01,-34.31,0,*78
1488193512.67,10108,10.94,73252.8,4.23,-34.35,-34.71,0,*70
1488193513.93,10109,10.94,73258.8,4.27,-32.85,-33.27,0,*7C
1488193515.15,10110,10.94,73252.8,4.27,-32.69,-33.09,0,*7A
1488193516.38,10111,10.94,73258.0,4.27,-33.37,-33.77,0,*78
1488193517.61,10112,10.94,73256.0,4.29,-33.67,-34.01,0,*76
1488193518.83,10113,10.94,73258.3,4.27,-34.71,-35.23,0,*78
1488193520.08,10114,10.94,73254.0,4.27,-34.53,-35.07,0,*79
1488193521.31,10115,10.94,73254.5,4.27,-34.95,-35.29,0,*7E
1488193522.53,10116,10.94,73254.8,4.27,-35.23,-35.59,0,*76
1488193523.77,10117,10.94,73252.8,4.27,-35.41,-35.65,0,*7C
1488193525.0,10118,10.94,73258.5,4.27,-34.53,-35.13,0,*70
1488193526.2,10119,10.94,73256.8,4.23,-34.71,-35.17,0,*71
1488193527.4,10120,10.94,73258.5,4.23,-35.13,-35.59,0,*74
1488193528.65,10121,10.94,73256.8,4.23,-34.95,-35.35,0,*70
1488193529.86,10122,10.94,73256.5,4.23,-35.01,-35.29,0,*72
1488193531.09,10123,10.94,73258.8,4.23,-34.59,-34.95,0,*79
1488193532.33,10124,10.94,73258.5,4.21,-34.71,-35.13,0,*79
1488193533.61,10125,10.94,73250.3,4.21,-34.95,-35.35,0,*76
1488193534.84,10126,10.94,73254.8,4.21,-35.01,-35.47,0,*7C
1488193536.07,10127,10.94,73248.0,4.21,-35.47,-35.89,0,*7D
1488193537.3,10128,10.94,73256.3,4.19,-35.59,-35.95,0,*7B
1488193538.55,10129,10.94,73246.8,4.19,-35.95,-36.37,0,*71
1488193539.79,10130,10.94,73250.0,4.17,-35.41,-35.71,0,*7F
1488193541.07,10131,10.94,73256.0,4.17,-35.53,-35.95,0,*77
1488193542.35,10132,10.94,73252.8,4.17,-35.53,-35.95,0,*74
1488193543.6,10133,10.94,73258.5,4.13,-35.41,-35.77,0,*7E
1488193544.88,10134,10.94,73252.8,4.13,-35.65,-35.95,0,*73
1488193546.1,10135,10.94,73250.8,4.11,-35.17,-35.65,0,*7A
1488193547.33,10136,10.94,73254.3,4.11,-35.53,-36.01,0,*78
1488193548.58,10137,10.94,73254.0,4.09,-35.53,-35.89,0,*73
1488193549.81,10138,10.94,73252.5,4.09,-35.71,-36.07,0,*79
1488193551.04,10139,10.94,73250.0,4.09,-36.07,-36.43,0,*7A
1488193552.24,10140,10.94,73252.3,4.07,-35.71,-36.07,0,*78
1488193553.47,10141,10.94,73260.8,4.07,-35.01,-35.41,0,*7F
1488193554.72,10142,10.94,73256.5,4.05,-35.23,-35.71,0,*7D
1488193555.95,10143,10.94,73256.0,4.07,-35.53,-35.89,0,*7E
1488193557.23,10144,10.94,73254.5,4.05,-35.53,-35.95,0,*76
1488193558.49,10145,10.94,73248.8,4.05,-35.59,-35.95,0,*7D
1488193559.7,10146,10.94,73250.3,4.03,-35.65,-36.19,0,*70
1488193560.96,10147,10.94,73258.5,4.01,-35.29,-35.83,0,*7B
1488193562.19,10148,10.94,73254.5,4.03,-35.13,-35.41,0,*71
1488193563.44,10149,10.94,73254.8,4.03,-34.83,-35.23,0,*7C
1488193564.72,10150,11.0,73262.5,4.01,-35.07,-35.53,0,*7C
1488193566.0,10151,10.94,73256.3,4.01,-35.83,-36.25,0,*73
1488193567.26,10152,10.94,73252.0,4.01,-35.53,-36.01,0,*7B
1488193568.49,10153,10.94,73258.5,3.99,-35.07,-35.47,0,*7C
1488193569.75,10154,10.94,73258.8,3.99,-35.07,-35.35,0,*7E
1488193570.99,10155,10.94,73252.5,3.99,-34.95,-35.29,0,*78
1488193572.22,10156,10.94,73250.3,3.99,-34.35,-34.89,0,*7A
1488193573.43,10157,10.94,73252.8,3.99,-34.07,-34.59,0,*77
1488193574.64,10158,10.94,73254.8,3.99,-34.41,-34.77,0,*76
1488193575.87,10159,10.94,73252.5,3.99,-34.35,-34.77,0,*74
1488193577.07,10160,10.94,73252.3,3.99,-34.89,-35.17,0,*7E
1488193578.32,10161,10.94,73254.3,4.01,-35.13,-35.53,0,*7B
1488193579.53,10162,10.94,73256.5,3.99,-34.89,-35.17,0,*7C
1488193580.76,10163,10.94,73256.8,3.99,-34.35,-34.77,0,*7D
1488193582.02,10164,10.94,73256.5,4.01,-35.07,-35.47,0,*7E
1488193583.26,10165,10.94,73256.0,3.97,-34.47,-34.77,0,*70
1488193584.54,10166,10.94,73256.0,3.97,-34.83,-35.23,0,*7B
1488193585.79,10167,10.94,73260.8,3.97,-34.25,-34.65,0,*75
1488193587.02,10168,10.94,73260.3,3.99,-33.61,-33.83,0,*7C
1488193588.24,10169,10.94,73260.0,3.99,-33.61,-34.25,0,*76
1488193589.47,10170,10.94,73258.0,3.99,-34.59,-35.07,0,*73
1488193590.71,10171,10.94,73256.0,3.99,-34.95,-35.47,0,*76
1488193591.94,10172,10.94,73256.0,3.97,-34.07,-34.59,0,*7E
1488193593.17,10173,10.94,73256.0,3.99,-34.19,-34.59,0,*7E
1488193594.41,10174,10.94,73248.5,3.99,-34.35,-34.77,0,*7B
1488193595.67,10175,10.94,73256.0,3.99,-34.95,-35.53,0,*77
1488193596.9,10176,10.94,73256.0,3.99,-34.53,-34.89,0,*78
1488193598.14,10177,10.94,73252.8,3.99,-34.95,-35.47,0,*70
1488193599.34,10178,10.94,73254.0,3.99,-35.17,-35.71,0,*71
1488193600.6,10179,10.94,73254.8,3.97,-35.35,-35.89,0,*79
1488193601.89,10180,10.94,73252.8,3.97,-34.83,-35.53,0,*74
1488193603.16,10181,10.94,73258.5,3.97,-34.83,-35.23,0,*72
1488193604.42,10182,10.94,73256.8,3.97,-34.47,-34.83,0,*72
1488193605.68,10183,10.94,73258.8,3.99,-33.09,-33.61,0,*7B
1488193606.94,10184,10.94,73260.3,3.97,-34.07,-34.65,0,*78
1488193608.18,10185,10.94,73254.0,3.97,-34.47,-35.01,0,*7E
1488193609.38,10186,10.94,73252.0,3.99,-35.13,-35.71,0,*74
1488193610.63,10187,10.94,73256.0,3.97,-33.89,-34.25,0,*7E
1488193611.86,10188,10.94,73256.3,3.97,-34.07,-34.59,0,*7B
1488193613.14,10189,10.94,73256.5,3.97,-33.73,-34.31,0,*70
1488193614.34,10190,10.94,73260.0,3.99,-33.67,-34.07,0,*76
1488193615.58,10191,10.94,73258.3,3.99,-33.49,-33.67,0,*7A
1488193616.81,10192,10.94,73258.8,3.99,-33.77,-34.07,0,*75
1488193618.04,10193,10.94,73254.5,3.99,-33.77,-34.07,0,*74
1488193619.29,10194,10.94,73252.3,4.01,-33.43,-33.67,0,*73
1488193620.55,10195,10.94,73256.5,4.01,-34.07,-34.53,0,*75
1488193621.81,10196,10.94,73254.5,4.01,-33.67,-34.01,0,*70
1488193623.09,10197,10.94,73252.3,4.01,-33.31,-33.77,0,*74
1488193624.31,10198,10.94,73254.8,4.01,-34.07,-34.41,0,*7B
1488193625.53,10199,10.94,73252.3,4.03,-34.13,-34.35,0,*7E
1488193626.79,10200,10.94,73254.0,4.03,-34.35,-34.65,0,*7C
1488193628.0,10201,10.94,73248.8,4.03,-33.95,-34.19,0,*7B
1488193629.25,10202,10.94,73250.5,4.01,-34.19,-34.41,0,*74
1488193630.48,10203,10.94,73246.0,4.05,-34.41,-34.77,0,*79
1488193631.71,10204,10.94,73248.5,4.05,-34.13,-34.41,0,*7C
1488193632.93,10205,10.94,73248.3,4.03,-34.35,-34.71,0,*7C
1488193634.19,10206,10.94,73248.0,4.03,-34.31,-34.65,0,*7E
1488193635.39,10207,10.94,73244.0,4.03,-34.13,-34.47,0,*7F
1488193636.62,10208,10.94,73242.0,4.03,-33.37,-33.73,0,*71
1488193637.85,10209,10.94,73244.3,4.05,-32.69,-33.03,0,*7B
1488193639.11,10210,10.94,73250.8,4.05,-33.67,-33.77,0,*7F
1488193640.36,10211,10.94,73250.3,4.05,-33.31,-33.55,0,*7D
1488193641.59,10212,10.94,73242.5,4.07,-33.37,-33.73,0,*7E
1488193642.82,10213,10.94,73240.8,4.07,-32.29,-32.39,0,*7E
1488193644.07,10214,10.94,73242.8,4.09,-32.07,-32.35,0,*77
1488193645.3,10215,10.94,73246.8,4.09,-32.35,-32.51,0,*75
1488193646.53,10216,10.94,73242.5,4.09,-32.39,-32.51,0,*7A
1488193647.73,10217,10.94,73246.5,4.11,-32.35,-32.39,0,*70
1488193648.99,10218,10.94,73246.3,4.13,-32.51,-32.75,0,*77
1488193650.24,10219,10.94,73246.0,4.13,-32.85,-33.21,0,*7F
1488193651.52,10220,10.94,73246.3,4.17,-32.45,-32.79,0,*71
1488193652.75,10221,10.94,73250.0,4.17,-32.23,-32.39,0,*74
1488193654.03,10222,10.94,73246.5,4.17,-32.85,-33.31,0,*72
1488193655.28,10223,10.94,73248.5,4.17,-33.03,-33.49,0,*73
1488193656.51,10224,10.94,73250.0,4.19,-31.95,-32.23,0,*7A
1488193657.76,10225,10.94,73248.0,4.21,-32.19,-32.39,0,*7C
1488193659.01,10226,10.94,73246.8,4.21,-32.35,-32.63,0,*7E
1488193660.22,10227,10.94,73248.3,4.21,-32.23,-32.57,0,*7F
1488193661.42,10228,10.94,73252.5,4.23,-32.23,-32.39,0,*7A
1488193662.65,10229,10.94,73254.0,4.23,-32.75,-33.15,0,*77
1488193663.89,10230,10.94,73248.3,4.25,-32.85,-33.21,0,*71
1488193665.12,10231,10.94,73250.8,4.25,-32.57,-33.03,0,*7F
1488193666.34,10232,10.94,73244.3,4.25,-33.67,-34.13,0,*78
1488193667.61,10233,10.94,73250.3,4.25,-33.43,-33.77,0,*7A
1488193668.88,10234,10.94,73254.0,4.25,-33.43,-33.49,0,*70
1488193670.15,10235,10.94,73252.5,4.25,-33.09,-33.49,0,*7F
1488193671.4,10236,10.94,73250.3,4.25,-32.85,-33.21,0,*77
1488193672.62,10237,10.94,73250.3,4.25,-32.51,-32.91,0,*75
1488193673.87,10238,10.94,73250.5,4.25,-33.27,-33.67,0,*72
1488193675.09,10239,10.94,73252.0,4.27,-32.75,-33.21,0,*75
1488193676.31,10240,10.94,73258.8,4.27,-33.03,-33.49,0,*75
1488193677.54,10241,10.94,73254.5,4.27,-34.19,-34.71,0,*74
1488193678.77,10242,10.94,73250.8,4.27,-33.77,-34.31,0,*7C
1488193680.0,10243,10.94,73260.0,4.27,-34.13,-34.65,0,*79
1488193681.25,10244,10.94,73256.5,4.25,-33.49,-33.83,0,*7B
1488193682.5,10245,10.94,73258.3,4.25,-34.31,-34.71,0,*78
1488193683.72,10246,10.94,73256.5,4.25,-33.95,-34.47,0,*77
1488193684.97,10247,10.94,73258.3,4.25,-33.95,-34.53,0,*73
1488193686.19,10248,10.94,73256.0,4.23,-35.47,-35.83,0,*7F
1488193687.45,10249,10.94,73256.0,4.23,-34.53,-34.95,0,*7C
1488193688.73,10250,10.94,73254.8,4.21,-34.53,-34.95,0,*76
1488193689.96,10251,10.94,73254.0,4.19,-33.09,-33.37,0,*7B
1488193691.21,10252,10.94,73256.5,4.21,-32.75,-33.15,0,*79
1488193692.5,10253,10.94,73258.8,4.21,-32.75,-33.27,0,*79
1488193693.72,10254,10.94,73260.3,4.21,-33.67,-34.07,0,*79
1488193694.94,10255,10.94,73262.5,4.23,-33.31,-33.55,0,*79
1488193696.19,10256,10.94,73262.0,4.23,-33.73,-34.19,0,*73
1488193697.42,10257,10.94,73252.8,4.21,-34.71,-35.17,0,*7A
1488193698.71,10258,10.94,73248.5,4.21,-34.53,-34.95,0,*7E
1488193699.96,10259,10.94,73240.3,4.19,-34.65,-35.07,0,*7B
1488193701.16,10260,10.94,73232.5,4.19,-34.47,-34.89,0,*76
1488193702.36,10261,10.94,73222.8,4.19,-34.25,-34.59,0,*7E
1488193703.56,10262,10.94,73228.3,4.19,-34.13,-34.47,0,*77
1488193704.81,10263,10.94,73244.5,4.17,-35.71,-36.37,0,*78
1488193706.07,10264,10.94,73244.5,4.13,-35.59,-35.95,0,*7A